This demonstration page uses our WeatherBlox Daily Observations layout. Learn more.

Left ArrowRight Arrow

Hourly Observations for November 3, 2015

Temp ( °F °C ) Dew Point ( °F °C ) Humidity (%) Winds ( mph kmh ) Pressure ( in mb ) Visibility ( mi km ) Precip ( " mm )
12:53 am 00:53 Clear 40 4.4 38 3.3 93 93 Calm 30.10 1019 10 16 0.00 0.00
1:53 am 01:53 Clear 39 3.9 38 3.3 96 96 Calm 30.10 1019 7 11 0.00 0.00
2:53 am 02:53 Clear 38 3.3 37 2.8 97 97 Calm 30.10 1019 10 16 0.00 0.00
3:53 am 03:53 Clear 38 3.3 36 2.2 93 93 Calm 30.11 1020 7 11 0.00 0.00
4:53 am 04:53 Clear with Mist and Fog 38 3.3 36 2.2 93 93 Calm 30.11 1020 6 10 0.00 0.00
5:53 am 05:53 Clear 37 2.8 36 2.2 96 96 Calm 30.15 1021 9 14 0.00 0.00
6:53 am 06:53 Clear with Mist and Fog 36 2.2 35 1.7 97 97 Calm 30.16 1021 6 10 0.00 0.00
7:53 am 07:53 Sunny 39 3.9 38 3.3 96 96 Calm 30.18 1022 8 13 0.00 0.00
8:53 am 08:53 Sunny 51 10.6 47 8.3 86 86 Calm 30.19 1023 10 16 0.00 0.00
9:53 am 09:53 Sunny 59 15 48 8.9 67 67 N 5 7 30.20 1023 10 16 0.00 0.00
10:53 am 10:53 Sunny 64 17.8 50 10 60 60 Calm 30.19 1023 10 16 0.00 0.00
11:53 am 11:53 Sunny 69 20.6 54 12.2 59 59 ESE 6 9 30.18 1022 10 16 0.00 0.00
12:53 pm 12:53 Sunny 73 22.8 45 7.2 37 37 VRB 6 9 30.15 1021 10 16 0.00 0.00
1:53 pm 13:53 Sunny 75 23.9 54 12.2 48 48 undefined N/A 30.14 1021 10 16 0.00 0.00
2:53 pm 14:53 Sunny 76 24.4 55 12.8 48 48 E 7 11 30.13 1020 10 16 0.00 0.00
3:53 pm 15:53 Sunny 76 24.4 54 12.2 47 47 ESE 6 9 30.12 1020 10 16 0.00 0.00
4:53 pm 16:53 Sunny 74 23.3 55 12.8 52 52 E 5 7 30.13 1020 10 16 0.00 0.00
5:53 pm 17:53 Clear 63 17.2 53 11.7 70 70 Calm 30.14 1021 10 16 0.00 0.00
6:53 pm 18:53 Clear 58 14.4 52 11.1 81 81 Calm 30.16 1021 10 16 0.00 0.00
7:53 pm 19:53 Clear 55 12.8 52 11.1 90 90 Calm 30.17 1022 10 16 0.00 0.00
8:53 pm 20:53 Clear 52 11.1 49 9.4 89 89 Calm 30.17 1022 10 16 0.00 0.00
9:53 pm 21:53 Clear 51 10.6 49 9.4 92 92 Calm 30.18 1022 10 16 0.00 0.00
10:53 pm 22:53 Clear 51 10.6 48 8.9 89 89 Calm 30.17 1022 10 16 0.00 0.00
11:53 pm 23:53 Clear 50 10 48 8.9 93 93 Calm 30.17 1022 10 16 0.00 0.00

Powered by AerisWeather